Location: Gwatt
(46.7204°N, 7.6223°E)
Time: 18:38:53
(UTC+00:00)

Transit 2A - Pass Details

Date: 30 January 2021
Orbit: 600 x 958 km, 66.7° (Epoch: 25 February)

Event Time Altitude Azimuth Distance (km) Brightness Sun altitude
Rises 11:10:51 0° 319° (NW) 2,977 8.6 25.3°
Reaches altitude 10° 11:13:21 10° 311° (NW) 2,022 7.9 25.4°
Maximum altitude 11:17:26 35° 246° (WSW) 994 7.1 25.5°
Drops below altitude 10° 11:21:22 10° 180° (S) 1,938 10.0 25.6°
Sets 11:23:42 0° 172° (S) 2,834 10.3 25.6°
